period_start,C,m1,H,J0,J1,J2,J3,J4,J5,JA,JB,JC,JD,JJ,JK,JN,#
2016-02-16 00:00:08,0.04,0.25,0.00,14.82,18.56,22.63,15.05,46.92,1019.56,2068.98,3567.59,3130.00,3543.43,600.00,614.72,5.98,0000 0000 0000 0000 000000
2016-02-16 00:05:09,0.05,0.25,0.00,14.82,18.57,22.62,15.09,46.86,1019.58,2068.93,3566.57,3129.15,3542.31,600.09,614.79,6.03,0000 0000 0000 0000 000000
2016-02-16 00:10:11,0.03,0.25,0.00,14.84,18.58,22.74,15.01,46.80,1019.91,2068.83,3565.53,3128.38,3541.45,600.01,615.01,6.08,0000 0000 0000 0000 000000
2016-02-16 00:15:12,0.01,0.26,0.00,14.87,18.59,22.62,14.99,46.90,1019.89,2068.53,3564.52,3127.70,3540.57,599.94,614.77,6.13,0000 0000 0000 0000 000000
2016-02-16 00:20:13,0.02,0.26,0.00,14.89,18.61,22.69,14.98,46.88,1019.88,2068.14,3563.46,3126.89,3539.61,599.97,614.76,6.18,0000 0000 0000 0000 000000
2016-02-16 00:25:15,0.04,0.26,0.00,14.90,18.62,22.66,14.97,46.81,1019.66,2068.08,3562.46,3126.07,3538.75,599.73,614.34,6.23,0000 0000 0000 0000 000000
2016-02-16 00:30:16,0.04,0.26,0.00,14.90,18.64,22.69,15.13,46.88,1019.57,2068.04,3561.44,3125.27,3537.81,600.11,614.60,6.28,0000 0000 0000 0000 000000
2016-02-16 00:35:18,0.03,0.26,0.00,14.93,18.65,22.73,15.04,46.89,1019.64,2068.02,3560.42,3124.65,3537.04,600.50,615.03,6.33,0000 0000 0000 0000 000000
2016-02-16 00:40:19,0.03,0.27,0.00,14.94,18.67,22.78,15.11,46.88,1019.71,2068.01,3559.50,3124.00,3536.17,600.31,614.96,6.38,0000 0000 0000 0000 000000
2016-02-16 00:45:20,0.05,0.27,0.00,14.95,18.68,22.77,15.04,46.77,1019.79,2068.00,3558.49,3123.21,3535.48,600.06,614.58,6.43,0000 0000 0000 0000 000000
2016-02-16 00:50:21,0.05,0.27,0.00,14.96,18.69,22.83,14.99,46.83,1019.88,2068.01,3557.42,3122.57,3534.60,600.23,614.89,6.48,0000 0000 0000 0000 000000
2016-02-16 00:55:23,0.03,0.27,0.00,14.98,18.72,22.86,14.96,46.87,1019.97,2068.00,3556.31,3121.91,3533.79,599.77,614.24,6.53,0000 0000 0000 0000 000000
2016-02-16 01:00:24,0.04,0.28,0.00,15.00,18.73,22.82,15.00,46.86,1019.81,2068.00,3555.35,3121.09,3532.88,599.84,614.55,6.58,0000 0000 0000 0000 000000
2016-02-16 01:05:25,0.04,0.28,0.00,15.01,18.75,22.81,15.07,46.97,1019.81,2067.99,3554.26,3120.40,3532.00,600.24,614.70,6.63,0000 0000 0000 0000 000000
2016-02-16 01:10:26,0.04,0.28,0.00,15.05,18.77,22.88,15.03,47.02,1019.94,2067.99,3553.05,3119.71,3531.10,600.12,614.51,6.68,0000 0000 0000 0000 000000
2016-02-16 01:15:28,0.04,0.28,0.00,15.07,18.79,22.94,15.04,46.85,1019.88,2067.97,3552.06,3118.96,3530.25,600.02,614.35,6.73,0000 0000 0000 0000 000000
2016-02-16 01:20:29,0.05,0.28,0.00,15.09,18.81,22.96,15.07,46.98,1020.00,2067.96,3550.90,3118.09,3529.29,600.05,614.50,6.78,0000 0000 0000 0000 000000
2016-02-16 01:25:30,0.05,0.29,0.00,15.11,18.83,22.97,14.96,46.81,1019.81,2067.93,3549.80,3117.37,3528.45,599.95,614.23,6.83,0000 0000 0000 0000 000000
2016-02-16 01:30:32,0.03,0.29,0.00,15.13,18.86,23.01,14.98,46.77,1019.65,2067.84,3548.75,3116.67,3527.61,599.81,614.08,6.88,0000 0000 0000 0000 000000
2016-02-16 01:35:33,0.02,0.29,0.00,15.15,18.88,22.95,15.04,46.92,1019.56,2067.70,3547.70,3115.98,3526.87,600.13,614.15,6.93,0000 0000 0000 0000 000000
2016-02-16 01:40:34,0.03,0.29,0.00,15.18,18.90,23.07,14.95,46.91,1019.58,2067.53,3546.67,3115.20,3525.95,599.89,613.84,6.98,0000 0000 0000 0000 000000
2016-02-16 01:45:36,0.03,0.29,0.00,15.22,18.93,23.06,14.97,46.89,1019.63,2067.16,3545.46,3114.40,3524.92,599.82,613.82,7.04,0000 0000 0000 0000 000000
2016-02-16 01:50:37,0.04,0.30,0.00,15.25,18.96,23.12,14.97,46.83,1019.70,2067.03,3544.34,3113.60,3523.95,599.63,613.59,7.09,0000 0000 0000 0000 000000
2016-02-16 01:55:38,0.04,0.30,0.00,15.26,18.98,23.09,15.01,46.98,1019.60,2067.00,3543.23,3112.85,3522.93,600.00,613.84,7.14,0000 0000 0000 0000 000000
2016-02-16 02:00:40,0.04,0.30,0.00,15.27,19.01,23.17,14.98,46.83,1019.64,2067.00,3542.10,3112.04,3521.94,600.21,614.14,7.19,0000 0000 0000 0000 000000
2016-02-16 02:05:41,0.05,0.30,0.00,15.30,19.03,23.21,15.01,46.87,1019.70,2067.00,3540.93,3111.23,3521.01,599.97,613.84,7.24,0000 0000 0000 0000 000000
2016-02-16 02:10:42,0.05,0.31,0.00,15.32,19.05,23.18,15.02,47.16,1019.80,2066.98,3539.74,3110.43,3520.06,599.91,613.74,7.29,0000 0000 0000 0000 000000
2016-02-16 02:15:44,0.05,0.31,0.00,15.33,19.08,23.19,14.95,46.84,1019.82,2066.97,3538.53,3109.69,3519.13,600.00,613.78,7.34,0000 0000 0000 0000 000000
2016-02-16 02:20:45,0.04,0.31,0.00,15.38,19.10,23.29,14.89,46.96,1019.81,2066.95,3537.38,3109.00,3518.28,599.79,613.55,7.39,0000 0000 0000 0000 000000
2016-02-16 02:25:46,0.04,0.31,0.00,15.42,19.12,23.23,15.07,47.00,1019.88,2066.91,3536.34,3108.19,3517.45,600.13,613.78,7.44,0000 0000 0000 0000 000000
2016-02-16 02:30:47,0.05,0.32,0.00,15.43,19.14,23.27,15.00,47.04,1019.93,2066.90,3535.10,3107.48,3516.53,600.07,613.75,7.49,0000 0000 0000 0000 000000
2016-02-16 02:35:48,0.01,0.32,0.00,15.44,19.16,23.27,15.01,46.93,1019.75,2066.48,3533.77,3106.58,3515.47,600.21,613.79,7.54,0000 0000 0000 0000 000000
2016-02-16 02:40:50,0.03,0.32,0.00,15.44,19.17,23.24,15.07,46.89,1019.57,2066.20,3532.58,3105.86,3514.43,600.35,613.74,7.59,0000 0000 0000 0000 000000
2016-02-16 02:45:51,0.04,0.32,0.00,15.48,19.19,23.28,15.02,47.27,1019.56,2066.07,3531.34,3104.98,3513.49,600.16,613.32,7.64,0000 0000 0000 0000 000000
2016-02-16 02:50:52,0.05,0.32,0.00,15.50,19.20,23.27,14.96,47.21,1019.56,2066.04,3529.98,3104.09,3512.44,599.65,612.97,7.69,0000 0000 0000 0000 000000
2016-02-16 02:55:54,0.06,0.33,0.00,15.53,19.22,23.30,14.92,46.99,1019.57,2066.03,3528.74,3103.20,3511.45,599.98,613.21,7.74,0000 0000 0000 0000 000000
2016-02-16 03:00:55,0.05,0.33,0.00,15.57,19.24,23.32,14.97,47.00,1019.56,2066.01,3527.57,3102.45,3510.47,599.94,613.09,7.79,0000 0000 0000 0000 000000
2016-02-16 03:05:56,0.04,0.33,0.00,15.60,19.25,23.31,15.01,47.00,1019.56,2066.00,3526.40,3101.72,3509.47,600.01,613.19,7.84,0000 0000 0000 0000 000000
2016-02-16 03:10:57,0.04,0.33,0.00,15.62,19.27,23.34,14.99,47.02,1019.55,2066.00,3525.18,3100.94,3508.60,600.04,613.22,7.89,0000 0000 0000 0000 000000
2016-02-16 03:15:59,0.06,0.34,0.00,15.63,19.29,23.36,14.85,46.83,1019.53,2066.00,3523.78,3100.07,3507.54,599.72,612.75,7.94,0000 0000 0000 0000 000000
2016-02-16 03:21:00,0.06,0.34,0.00,15.67,19.32,23.41,14.86,46.96,1019.54,2065.99,3522.16,3099.15,3506.45,599.75,612.72,7.99,0000 0000 0000 0000 000000
2016-02-16 03:26:01,0.07,0.34,0.00,15.69,19.34,23.47,14.98,47.06,1019.51,2065.99,3520.43,3098.06,3505.05,599.99,612.91,8.04,0000 0000 0000 0000 000000
2016-02-16 03:31:02,0.06,0.35,0.00,15.72,19.37,23.44,14.99,46.97,1019.53,2065.97,3518.95,3097.02,3503.77,600.22,613.05,8.09,0000 0000 0000 0000 000000
2016-02-16 03:36:03,0.06,0.35,0.00,15.74,19.39,23.49,14.97,46.93,1019.54,2065.96,3517.57,3096.08,3502.50,599.86,612.63,8.14,0000 0000 0000 0000 000000
2016-02-16 03:41:05,0.03,0.35,0.00,15.79,19.42,23.54,14.93,46.91,1019.55,2065.77,3516.33,3095.16,3501.36,599.95,612.69,8.19,0000 0000 0000 0000 000000
2016-02-16 03:46:06,0.02,0.35,0.00,15.83,19.45,23.61,15.04,46.86,1019.55,2065.28,3515.00,3094.22,3500.22,600.11,612.70,8.24,0000 0000 0000 0000 000000
2016-02-16 03:51:07,0.04,0.35,0.00,15.85,19.47,23.63,14.89,46.84,1019.56,2065.07,3513.75,3093.41,3499.15,599.48,612.05,8.29,0000 0000 0000 0000 000000
2016-02-16 03:56:09,0.06,0.36,0.00,15.87,19.49,23.64,14.95,46.88,1019.56,2065.03,3512.37,3092.53,3498.12,599.95,612.45,8.34,0000 0000 0000 0000 000000
2016-02-16 04:01:10,0.06,0.36,0.00,15.91,19.52,23.65,14.87,46.87,1019.56,2065.02,3510.98,3091.60,3496.97,599.56,611.97,8.39,0000 0000 0000 0000 000000
2016-02-16 04:06:11,0.05,0.36,0.00,15.94,19.54,23.67,14.89,46.75,1019.56,2065.01,3509.67,3090.70,3495.89,599.97,612.30,8.44,0000 0000 0000 0000 000000
2016-02-16 04:11:13,0.05,0.37,0.00,15.96,19.56,23.77,14.96,46.78,1019.56,2065.00,3508.38,3089.86,3494.77,599.68,612.05,8.49,0000 0000 0000 0000 000000
2016-02-16 04:16:14,0.04,0.37,0.00,16.00,19.58,23.77,14.85,46.77,1019.59,2064.99,3507.11,3089.01,3493.77,599.70,611.93,8.54,0000 0000 0000 0000 000000
2016-02-16 04:21:15,0.05,0.37,0.00,16.02,19.61,23.72,14.90,46.77,1019.66,2064.98,3505.80,3088.17,3492.81,599.91,612.11,8.59,0000 0000 0000 0000 000000
2016-02-16 04:26:17,0.05,0.37,0.00,16.02,19.63,23.84,14.95,46.72,1019.58,2064.95,3504.54,3087.29,3491.76,600.01,612.24,8.64,0000 0000 0000 0000 000000
2016-02-16 04:31:18,0.03,0.38,0.00,16.06,19.66,23.85,14.93,46.79,1019.57,2064.73,3503.09,3086.34,3490.62,600.11,612.18,8.69,0000 0000 0000 0000 000000
2016-02-16 04:36:19,0.03,0.38,0.00,16.09,19.69,23.86,14.83,46.67,1019.63,2064.26,3501.69,3085.43,3489.42,599.76,611.98,8.74,0000 0000 0000 0000 000000
2016-02-16 04:41:20,0.05,0.38,0.00,16.12,19.71,23.89,14.97,46.77,1019.71,2064.10,3500.40,3084.53,3488.35,600.07,612.12,8.79,0000 0000 0000 0000 000000
2016-02-16 04:46:22,0.06,0.38,0.00,16.12,19.74,23.89,14.88,46.77,1019.86,2064.01,3498.95,3083.60,3487.29,599.63,611.57,8.84,0000 0000 0000 0000 000000
2016-02-16 04:51:23,0.06,0.39,0.00,16.13,19.77,23.98,14.93,46.84,1019.86,2064.02,3497.57,3082.69,3486.16,600.24,612.37,8.89,0000 0000 0000 0000 000000
2016-02-16 04:56:25,0.06,0.39,0.00,16.16,19.80,23.95,14.99,46.67,1019.73,2064.00,3496.03,3081.72,3484.94,600.47,612.42,8.94,0000 0000 0000 0000 000000
2016-02-16 05:01:26,0.07,0.39,0.00,16.20,19.83,23.98,14.95,46.76,1019.81,2064.00,3494.50,3080.71,3483.72,600.08,612.06,8.99,0000 0000 0000 0000 000000
2016-02-16 05:06:27,0.07,0.40,0.00,16.22,19.85,23.97,14.94,47.41,1019.81,2063.98,3492.70,3079.56,3482.48,599.99,611.94,9.04,0000 0000 0000 0000 000000
2016-02-16 05:11:29,0.06,0.40,0.00,16.24,19.88,24.00,15.02,46.99,1019.85,2063.97,3491.15,3078.57,3481.25,600.14,612.06,9.09,0000 0000 0000 0000 000000
2016-02-16 05:16:30,0.06,0.40,0.00,16.27,19.91,24.01,14.96,46.97,1019.69,2063.88,3489.54,3077.54,3480.02,600.20,611.91,9.14,0000 0000 0000 0000 000000
2016-02-16 05:21:31,0.03,0.41,0.00,16.29,19.94,24.03,14.99,46.96,1019.75,2063.74,3488.25,3076.73,3478.87,600.13,611.87,9.19,0000 0000 0000 0000 000000
2016-02-16 05:26:32,0.02,0.41,0.00,16.29,19.97,24.14,14.96,46.98,1019.81,2063.21,3486.78,3075.73,3477.73,600.01,611.59,9.24,0000 0000 0000 0000 000000
2016-02-16 05:31:34,0.06,0.41,0.00,16.32,20.00,24.18,14.89,46.90,1020.00,2063.04,3485.11,3074.65,3476.40,599.39,611.21,9.29,0000 0000 0000 0000 000000
2016-02-16 05:36:35,0.08,0.41,0.00,16.36,20.03,24.20,14.96,46.96,1019.99,2063.01,3483.13,3073.49,3474.93,599.85,611.62,9.35,0000 0000 0000 0000 000000
2016-02-16 05:41:36,0.08,0.42,0.00,16.38,20.05,24.16,14.91,46.73,1020.03,2063.00,3481.10,3072.22,3473.45,600.00,611.63,9.40,0000 0000 0000 0000 000000
2016-02-16 05:46:37,0.09,0.42,0.00,16.42,20.08,24.21,14.91,46.79,1020.03,2063.00,3478.96,3071.00,3471.85,599.74,611.37,9.45,0000 0000 0000 0000 000000
2016-02-16 05:51:38,0.12,0.43,0.00,16.44,20.11,24.27,14.97,46.83,1020.03,2062.97,3475.84,3069.45,3470.01,599.93,611.50,9.50,0000 0000 0000 0000 000000
2016-02-16 05:56:39,0.18,0.44,0.00,16.44,20.13,24.30,14.90,46.88,1020.03,2062.95,3471.50,3067.29,3467.59,599.85,611.37,9.55,0000 0000 0000 0000 000000
2016-02-16 06:01:41,0.16,0.44,0.00,16.47,20.16,24.31,14.93,46.89,1020.02,2062.95,3466.85,3065.07,3465.00,600.08,611.59,9.60,0000 0000 0000 0000 000000
2016-02-16 06:06:42,0.07,0.45,0.00,16.49,20.18,24.28,14.90,46.98,1020.03,2062.63,3463.66,3063.60,3463.14,600.09,611.47,9.65,0000 0000 0000 0000 000000
2016-02-16 06:11:43,0.06,0.45,0.00,16.50,20.20,24.33,14.97,47.13,1020.03,2062.18,3460.71,3062.03,3461.32,600.26,611.68,9.70,0000 0000 0000 0000 000000
2016-02-16 06:16:45,0.05,0.46,0.00,16.52,20.22,24.24,14.94,47.08,1020.03,2062.04,3458.80,3061.03,3460.08,600.31,611.78,9.75,0000 0000 0000 0000 000000
2016-02-16 06:21:46,0.05,0.46,0.00,16.55,20.24,24.27,14.84,47.08,1020.03,2062.04,3457.58,3060.38,3459.20,599.82,611.08,9.80,0000 0000 0000 0000 000000
2016-02-16 06:26:48,0.05,0.46,0.00,16.59,20.26,24.44,14.89,47.08,1020.03,2062.00,3456.24,3059.61,3458.15,600.03,611.31,9.85,0000 0000 0000 0000 000000
2016-02-16 06:31:49,0.05,0.46,0.00,16.60,20.28,24.40,14.84,46.99,1020.04,2062.00,3454.72,3058.79,3457.05,599.96,611.21,9.90,0000 0000 0000 0000 000000
2016-02-16 06:36:50,0.04,0.47,0.00,16.62,20.30,24.35,14.86,46.83,1020.04,2062.00,3453.37,3058.02,3456.11,600.00,611.21,9.95,0000 0000 0000 0000 000000
2016-02-16 06:41:51,0.05,0.47,0.00,16.62,20.32,24.44,14.95,46.91,1020.04,2062.00,3452.09,3057.32,3455.36,599.90,611.06,10.00,0000 0000 0000 0000 000000
2016-02-16 06:46:52,0.03,0.47,0.00,16.63,20.34,24.39,14.92,46.93,1020.04,2061.99,3451.03,3056.97,3454.62,599.88,611.25,10.05,0000 0000 0000 0000 000000
2016-02-16 06:51:53,0.04,0.47,0.00,16.66,20.36,24.40,14.90,46.88,1020.04,2061.97,3450.07,3056.16,3453.94,600.13,611.27,10.10,0000 0000 0000 0000 000000
2016-02-16 06:56:54,0.03,0.48,0.00,16.66,20.37,24.50,14.91,46.81,1020.04,2061.98,3449.20,3055.99,3453.18,599.84,610.96,10.15,0000 0000 0000 0000 000000
2016-02-16 07:01:56,0.04,0.48,0.00,16.69,20.39,24.44,14.93,46.83,1020.04,2061.93,3448.09,3055.27,3452.37,600.01,611.05,10.20,0000 0000 0000 0000 000000
2016-02-16 07:06:57,0.04,0.48,0.00,16.69,20.41,24.44,14.86,46.67,1020.04,2061.83,3446.76,3054.67,3451.54,599.80,610.99,10.25,0000 0000 0000 0000 000000
2016-02-16 07:11:58,0.02,0.48,0.00,16.70,20.42,24.46,14.91,46.83,1020.04,2061.73,3445.57,3054.00,3450.70,599.73,610.76,10.30,0000 0000 0000 0000 000000
2016-02-16 07:17:00,0.10,0.48,0.00,16.74,20.44,24.46,14.89,46.83,1020.04,2061.30,3443.02,3052.59,3449.03,599.85,610.80,10.35,0000 0000 0000 0000 000000
2016-02-16 07:22:01,0.27,0.49,0.00,16.74,20.45,24.54,14.92,46.78,1020.06,2061.15,3437.06,3049.08,3444.98,600.23,611.18,10.40,0000 0000 0000 0000 000000
2016-02-16 07:27:02,0.21,0.51,0.00,16.74,20.47,24.54,14.85,46.77,1020.07,2061.03,3430.63,3045.24,3440.61,599.69,610.93,10.45,0000 0000 0000 0000 000000
2016-02-16 07:32:03,0.22,0.52,0.00,16.75,20.47,24.46,14.76,46.65,1020.06,2061.03,3425.82,3042.34,3437.32,599.57,610.51,10.50,0000 0000 0000 0000 000000
2016-02-16 07:37:05,0.21,0.53,0.00,16.77,20.49,24.57,15.01,46.85,1020.06,2061.02,3420.44,3039.14,3433.73,600.26,611.20,10.55,0000 0000 0000 0000 000000
2016-02-16 07:42:06,0.08,0.54,0.00,16.80,20.49,24.56,14.82,46.73,1020.05,2061.00,3417.69,3037.65,3431.84,599.63,610.39,10.60,0000 0000 0000 0000 000000
2016-02-16 07:47:07,0.29,0.55,0.00,16.82,20.50,24.54,14.97,46.83,1020.04,2061.00,3412.39,3034.38,3428.14,600.11,610.85,10.65,0000 0000 0000 0000 000000
2016-02-16 07:52:08,0.18,0.56,0.00,16.82,20.51,24.65,14.88,46.82,1020.04,2061.00,3406.71,3030.79,3424.26,600.07,610.86,10.70,0000 0000 0000 0000 000000
2016-02-16 07:57:10,0.04,0.56,0.00,16.83,20.52,24.54,14.88,46.84,1020.04,2061.00,3405.21,3030.02,3423.14,600.28,611.05,10.75,0000 0000 0000 0000 000000
2016-02-16 08:02:11,0.07,0.57,0.00,16.84,20.52,24.53,14.90,46.80,1020.04,2060.99,3403.54,3029.17,3422.02,599.80,610.77,10.80,0000 0000 0000 0000 000000
2016-02-16 08:07:12,0.05,0.57,0.00,16.87,20.52,24.48,14.88,46.88,1020.04,2060.99,3402.32,3028.42,3421.05,599.85,610.64,10.85,0000 0000 0000 0000 000000
2016-02-16 08:12:13,0.03,0.57,0.00,16.86,20.52,24.51,14.91,46.85,1020.06,2060.98,3401.41,3028.01,3420.48,599.90,610.60,10.90,0000 0000 0000 0000 000000
2016-02-16 08:17:14,0.03,0.57,0.00,16.85,20.52,24.47,14.84,46.76,1020.09,2060.98,3400.49,3027.73,3419.90,599.79,610.54,10.95,0000 0000 0000 0000 000000
2016-02-16 08:22:16,0.04,0.58,0.00,16.87,20.53,24.53,14.88,46.65,1020.14,2060.98,3399.48,3027.02,3419.07,600.03,610.87,11.00,0000 0000 0000 0000 000000
2016-02-16 08:27:17,0.04,0.58,0.00,16.87,20.54,24.54,14.84,46.67,1020.29,2060.97,3398.45,3026.59,3418.41,600.04,610.93,11.05,0000 0000 0000 0000 000000
2016-02-16 08:32:18,0.04,0.58,0.00,16.88,20.54,24.53,14.91,46.82,1020.46,2060.97,3397.03,3025.93,3417.42,600.07,610.98,11.10,0000 0000 0000 0000 000000
2016-02-16 08:37:20,0.05,0.58,0.00,16.89,20.54,24.56,14.89,46.77,1020.44,2060.97,3395.78,3025.14,3416.66,600.17,611.00,11.15,0000 0000 0000 0000 000000
2016-02-16 08:42:21,0.02,0.59,0.00,16.90,20.54,24.57,14.91,46.85,1020.32,2060.97,3394.81,3024.85,3416.00,600.18,610.98,11.20,0000 0000 0000 0000 000000
2016-02-16 08:47:22,0.04,0.59,0.00,16.90,20.54,24.53,14.95,46.83,1020.15,2060.98,3393.86,3024.11,3415.26,599.80,610.87,11.25,0000 0000 0000 0000 000000
2016-02-16 08:52:23,0.01,0.59,0.00,16.92,20.55,24.60,14.96,46.90,1020.27,2060.98,3392.99,3023.99,3414.89,600.20,610.93,11.30,0000 0000 0000 0000 000000
2016-02-16 08:57:25,0.05,0.59,0.00,16.92,20.57,24.55,14.96,46.87,1020.13,2060.97,3392.15,3023.44,3414.09,600.37,610.95,11.35,0000 0000 0000 0000 000000
2016-02-16 09:02:26,0.03,0.59,0.00,16.94,20.57,24.54,14.93,46.71,1020.08,2060.98,3391.20,3022.99,3413.52,600.13,610.66,11.40,0000 0000 0000 0000 000000
2016-02-16 09:07:27,0.05,0.60,0.00,16.93,20.58,24.56,14.91,46.83,1020.06,2060.94,3390.14,3022.23,3412.66,600.08,610.72,11.45,0000 0000 0000 0000 000000
2016-02-16 09:12:29,0.05,0.60,0.00,16.94,20.59,24.62,14.94,46.80,1020.18,2060.92,3388.86,3021.62,3411.68,599.77,610.42,11.50,0000 0000 0000 0000 000000
2016-02-16 09:17:31,0.03,0.60,0.00,16.97,20.59,24.61,14.92,46.82,1020.20,2060.90,3387.64,3020.97,3410.84,600.18,610.70,11.55,0000 0000 0000 0000 000000
2016-02-16 09:22:32,0.13,0.60,0.00,16.97,20.60,24.61,14.93,46.97,1020.16,2060.88,3385.16,3019.50,3409.19,600.33,610.91,11.61,0000 0000 0000 0000 000000
2016-02-16 09:27:33,0.24,0.62,0.00,16.98,20.62,24.61,15.00,46.87,1020.15,2060.82,3379.90,3016.28,3405.54,600.36,610.89,11.66,0000 0000 0000 0000 000000
2016-02-16 09:32:35,0.35,0.63,0.00,16.97,20.62,24.59,14.91,46.92,1020.23,2060.67,3372.06,3011.29,3399.97,599.86,610.43,11.71,0000 0000 0000 0000 000000
2016-02-16 09:37:36,0.32,0.65,0.00,16.99,20.62,24.59,14.89,46.88,1020.18,2060.53,3363.97,3006.24,3394.28,600.05,610.54,11.76,0000 0000 0000 0000 000000
2016-02-16 09:42:37,0.45,0.67,0.00,17.03,20.63,24.65,14.91,46.86,1020.33,2060.33,3353.85,2999.92,3387.45,599.73,610.27,11.81,0000 0000 0000 0000 000000
2016-02-16 09:47:38,0.38,0.69,0.00,17.02,20.64,24.65,14.85,46.88,1020.31,2060.43,3344.79,2994.37,3381.27,599.95,610.47,11.86,0000 0000 0000 0000 000000
2016-02-16 09:52:40,0.35,0.71,0.00,17.00,20.64,24.67,14.88,46.96,1020.29,2060.33,3336.43,2989.29,3375.64,599.79,610.36,11.91,0000 0000 0000 0000 000000
2016-02-16 09:57:41,0.41,0.73,0.00,17.00,20.66,24.66,14.96,47.06,1020.27,2060.24,3327.19,2983.59,3369.28,600.07,610.64,11.96,0000 0000 0000 0000 000000
2016-02-16 10:02:42,0.47,0.75,0.00,17.02,20.67,24.71,14.84,47.08,1020.18,2060.05,3316.36,2976.93,3361.87,599.68,610.22,12.01,0000 0000 0000 0000 000000
2016-02-16 10:07:43,0.48,0.78,0.00,17.02,20.67,24.70,14.80,47.16,1020.11,2060.04,3305.18,2970.08,3354.28,599.61,610.05,12.06,0000 0000 0000 0000 000000
2016-02-16 10:12:45,0.39,0.80,0.00,17.03,20.69,24.70,14.88,47.05,1020.10,2060.02,3296.06,2964.49,3348.03,599.79,610.09,12.11,0000 0000 0000 0000 000000
2016-02-16 10:17:46,0.51,0.82,0.00,17.05,20.70,24.74,14.92,46.92,1020.19,2060.02,3285.38,2957.96,3340.81,599.72,610.25,12.16,0000 0000 0000 0000 000000
2016-02-16 10:22:47,0.40,0.85,0.00,17.05,20.72,24.76,14.95,47.07,1020.27,2060.01,3275.30,2951.47,3333.48,600.09,610.57,12.21,0000 0000 0000 0000 000000
2016-02-16 10:27:48,0.10,0.85,0.00,17.08,20.73,24.72,14.89,46.90,1020.09,2060.00,3272.25,2949.54,3331.09,600.07,610.40,12.26,0000 0000 0000 0000 000000
2016-02-16 10:32:50,0.08,0.86,0.00,17.12,20.75,24.76,14.87,46.73,1020.08,2060.00,3270.22,2948.32,3329.54,599.99,610.20,12.31,0000 0000 0000 0000 000000
2016-02-16 10:37:51,0.07,0.86,0.00,17.13,20.77,24.78,14.87,47.02,1020.09,2059.99,3268.20,2947.13,3328.14,599.86,610.27,12.36,0000 0000 0000 0000 000000
2016-02-16 10:42:52,0.09,0.87,0.00,17.13,20.78,24.81,14.92,47.00,1020.11,2059.98,3266.37,2945.97,3326.79,600.02,610.26,12.41,0000 0000 0000 0000 000000
2016-02-16 10:47:53,0.06,0.87,0.00,17.14,20.79,24.83,14.87,46.84,1020.07,2059.98,3264.66,2945.01,3325.73,599.94,610.06,12.46,0000 0000 0000 0000 000000
2016-02-16 10:52:55,0.06,0.87,0.00,17.14,20.82,24.83,14.88,46.83,1020.07,2059.97,3263.25,2944.11,3324.68,599.96,610.08,12.51,0000 0000 0000 0000 000000
2016-02-16 10:57:56,0.07,0.88,0.00,17.15,20.83,24.88,14.86,46.85,1020.11,2059.97,3261.79,2943.35,3323.55,599.79,609.91,12.56,0000 0000 0000 0000 000000
2016-02-16 11:02:58,0.07,0.88,0.00,17.18,20.84,24.93,14.82,46.85,1020.09,2059.94,3260.07,2942.33,3322.26,600.03,610.10,12.61,0000 0000 0000 0000 000000
2016-02-16 11:07:59,0.04,0.88,0.00,17.21,20.87,24.93,14.84,46.91,1020.18,2059.61,3258.27,2941.17,3320.84,599.88,609.91,12.66,0000 0000 0000 0000 000000
2016-02-16 11:13:00,0.04,0.89,0.00,17.21,20.88,24.91,14.96,46.85,1020.07,2059.30,3256.55,2940.14,3319.56,600.08,610.07,12.71,0000 0000 0000 0000 000000
2016-02-16 11:18:01,0.08,0.89,0.00,17.21,20.90,24.92,14.97,46.82,1020.07,2059.06,3254.46,2938.90,3318.01,600.03,610.01,12.76,0000 0000 0000 0000 000000
2016-02-16 11:23:03,0.09,0.89,0.00,17.23,20.92,24.95,14.85,46.97,1020.07,2059.04,3252.50,2937.74,3316.61,599.91,609.87,12.81,0000 0000 0000 0000 000000
2016-02-16 11:28:04,0.08,0.90,0.00,17.23,20.93,24.94,14.88,46.87,1020.09,2059.01,3250.45,2936.55,3315.21,600.05,610.03,12.86,0000 0000 0000 0000 000000
2016-02-16 11:33:06,0.08,0.90,0.00,17.25,20.95,24.99,14.88,46.90,1020.06,2059.00,3248.54,2935.49,3313.81,600.03,609.92,12.91,0000 0000 0000 0000 000000
2016-02-16 11:38:07,0.08,0.91,0.00,17.27,20.97,24.99,14.91,47.08,1020.07,2059.00,3246.76,2934.39,3312.56,599.92,609.82,12.96,0000 0000 0000 0000 000000
2016-02-16 11:43:08,0.02,0.91,0.00,17.27,20.98,25.05,14.94,47.17,1020.10,2059.00,3245.71,2933.98,3311.98,600.29,610.14,13.01,0000 0000 0000 0000 000000
2016-02-16 11:48:10,0.06,0.91,0.00,17.30,20.99,25.05,14.93,47.08,1020.10,2059.00,3244.69,2933.25,3311.15,600.25,610.12,13.06,0000 0000 0000 0000 000000
2016-02-16 11:53:11,0.02,0.91,0.00,17.31,21.02,25.03,14.85,47.23,1020.05,2058.99,3243.83,2932.96,3310.49,600.08,609.91,13.11,0000 0000 0000 0000 000000
2016-02-16 11:58:12,0.04,0.92,0.00,17.32,21.03,24.98,14.85,47.11,1020.05,2058.98,3243.03,2932.23,3309.98,600.17,609.76,13.16,0000 0000 0000 0000 000000
2016-02-16 12:03:14,0.03,0.92,0.00,17.34,21.04,25.05,14.91,47.13,1020.04,2058.97,3242.18,2932.00,3309.16,600.04,609.69,13.21,0000 0000 0000 0000 000000
2016-02-16 12:08:15,0.04,0.92,0.00,17.36,21.07,25.08,14.86,47.08,1020.04,2058.97,3241.32,2931.53,3308.66,599.94,609.65,13.26,0000 0000 0000 0000 000000
2016-02-16 12:13:16,0.02,0.92,0.00,17.37,21.08,25.12,14.80,47.02,1020.04,2058.94,3240.51,2931.00,3307.93,599.64,609.25,13.31,0000 0000 0000 0000 000000
2016-02-16 12:18:18,0.01,0.92,0.00,17.39,21.10,25.12,14.81,46.77,1020.04,2058.61,3239.57,2930.42,3307.10,599.74,609.29,13.36,0000 0000 0000 0000 000000
2016-02-16 12:23:19,0.02,0.92,0.00,17.40,21.12,25.10,14.78,47.01,1020.04,2058.32,3238.54,2929.96,3306.40,599.66,609.21,13.41,0000 0000 0000 0000 000000
2016-02-16 12:28:20,0.03,0.92,0.00,17.41,21.14,25.10,14.86,46.85,1020.04,2058.12,3237.35,2929.12,3305.50,599.93,609.59,13.46,0000 0000 0000 0000 000000
2016-02-16 12:33:21,0.05,0.93,0.00,17.40,21.15,25.16,14.85,46.89,1020.04,2058.03,3236.06,2928.47,3304.62,600.01,609.70,13.51,0000 0000 0000 0000 000000
2016-02-16 12:38:22,0.05,0.93,0.00,17.42,21.17,25.18,14.87,47.01,1020.04,2058.01,3234.70,2927.78,3303.70,599.99,609.49,13.56,0000 0000 0000 0000 000000
2016-02-16 12:43:23,0.04,0.93,0.00,17.44,21.19,25.19,14.96,47.16,1020.04,2058.01,3233.36,2927.03,3302.97,600.06,609.51,13.61,0000 0000 0000 0000 000000
2016-02-16 12:48:25,0.06,0.94,0.00,17.45,21.20,25.21,14.90,47.26,1020.03,2058.01,3232.01,2926.33,3302.11,600.09,609.52,13.66,0000 0000 0000 0000 000000
2016-02-16 12:53:26,0.05,0.94,0.00,17.45,21.22,25.18,14.86,47.14,1020.01,2058.01,3230.75,2925.73,3301.19,600.01,609.49,13.71,0000 0000 0000 0000 000000